Weather History for Lone Rock, WI

Change the Weather History Date:

Thursday, April 11, 2013

  Actual Average Record
Temperature  
Mean Temperature 38 °F -  
Max Temperature 42 °F 53 °F 73 °F (2003)
Min Temperature 35 °F 34 °F 18 °F (2004)
Degree Days  
Heating Degree Days 26    
Moisture  
Dew Point 36 °F    
Average Humidity 89    
Maximum Humidity 93    
Minimum Humidity 85    
Precipitation  
Precipitation 0.11 in - - ()
Sea Level Pressure  
Sea Level Pressure 29.66 in    
Wind  
Wind Speed 21 mph (East)    
Max Wind Speed 46 mph    
Max Gust Speed 60 mph    
Visibility 5 miles    
Events Rain    
Averages and records for this station are not official NWS values.
T = Trace of Precipitation, MM = Missing Value Source: NWS Daily Summary

Daily Weather History Graph

Daily Weather History Graph

Search for Another Location

Airport:

Trip Planner

Search our weather history database for the weather conditions in past years. The results will help you decide how hot, cold, wet, or windy it might be!

Date:

Astronomy

Apr. 11, 2013 Rise Set
Actual Time 6:24 AM CDT 7:39 PM CDT
Civil Twilight 5:55 AM CDT 8:08 PM CDT
Nautical Twilight 5:20 AM CDT 8:43 PM CDT
Astronomical Twilight 4:43 AM CDT 9:21 PM CDT
Moon 6:54 AM CDT (4/11) 9:16 PM CDT (4/11)
Length of Visible Light 14h 13m
Length of Day
13h 14m
New Moon, 2% of the Moon is Illuminated
Apr 11
New Moon
Apr 18
First Quarter
Apr 25
Full
May 2
Last Quarter
May 9
New

Hourly Weather History & Observations

Time (CDT) Temp. Windchill Dew Point Humidity Pressure Visibility Wind Dir Wind Speed Gust Speed Precip Events Conditions
12:37 AM 35.6 °F 20.0 °F 32.0 °F 87% 29.55 in 6.0 mi ENE 46.0 mph 59.8 mph 0.02 in Rain Light Rain
12:53 AM 37.4 °F 27.8 °F 33.8 °F 87% 29.79 in 10.0 mi ESE 17.3 mph 34.5 mph 0.02 in   Overcast
12:56 AM 37.0 °F 25.9 °F 33.1 °F 86% 29.79 in 10.0 mi ESE 23.0 mph 34.5 mph 0.02 in   Overcast
1:03 AM 37.4 °F 25.6 °F 33.8 °F 87% 29.79 in 10.0 mi East 26.5 mph 32.2 mph N/A   Overcast
1:56 AM 37.9 °F 27.6 °F 34.0 °F 86% 29.82 in 10.0 mi East 20.7 mph - N/A   Overcast
2:56 AM 37.9 °F 27.6 °F 34.0 °F 86% 29.78 in 4.0 mi East 20.7 mph 29.9 mph 0.00 in Rain Light Rain
3:56 AM 37.0 °F 27.4 °F 34.0 °F 89% 29.76 in 10.0 mi East 17.3 mph 32.2 mph 0.00 in   Overcast
4:56 AM 37.0 °F 26.4 °F 34.0 °F 89% 29.73 in 4.0 mi East 20.7 mph 29.9 mph 0.01 in Rain Light Rain
5:56 AM 37.0 °F 25.9 °F 34.0 °F 89% 29.70 in 2.5 mi East 23.0 mph - 0.00 in Rain Light Rain
6:10 AM 37.4 °F 26.1 °F 33.8 °F 87% 29.69 in 4.0 mi East 24.2 mph 29.9 mph 0.00 in Rain Light Rain
6:28 AM 37.4 °F 27.2 °F 33.8 °F 87% 29.71 in 2.5 mi East 19.6 mph - 0.01 in Rain Light Rain
6:41 AM 35.6 °F 24.8 °F 33.8 °F 93% 29.71 in 1.8 mi East 19.6 mph 26.5 mph 0.02 in Rain Light Rain
6:49 AM 35.6 °F 24.8 °F 33.8 °F 93% 29.70 in 2.0 mi East 19.6 mph - 0.02 in Rain Light Rain
6:56 AM 36.0 °F 26.0 °F 34.0 °F 93% 29.71 in 2.5 mi East 17.3 mph - 0.03 in Rain Light Rain
7:18 AM 35.6 °F 25.5 °F 33.8 °F 93% 29.72 in 1.5 mi East 17.3 mph 25.3 mph 0.00 in Rain Light Rain
7:43 AM 35.6 °F 26.6 °F 33.8 °F 93% 29.72 in 2.0 mi East 13.8 mph - 0.00 in Rain Light Rain
7:56 AM 37.0 °F 27.7 °F 34.0 °F 89% 29.73 in 5.0 mi East 16.1 mph - 0.00 in Rain Light Rain
8:16 AM 37.4 °F 26.9 °F 33.8 °F 87% 29.72 in 2.0 mi East 20.7 mph - 0.01 in Rain Light Rain
8:27 AM 37.4 °F 27.5 °F 33.8 °F 87% 29.72 in 7.0 mi East 18.4 mph 25.3 mph 0.01 in   Overcast
8:56 AM 37.0 °F 27.0 °F 34.0 °F 89% 29.72 in 9.0 mi East 18.4 mph 26.5 mph 0.01 in   Overcast
9:56 AM 37.9 °F 27.9 °F 35.1 °F 89% 29.69 in 2.5 mi East 19.6 mph - 0.00 in Rain Light Rain
10:28 AM 37.4 °F 27.5 °F 35.6 °F 93% 29.70 in 3.0 mi East 18.4 mph - 0.00 in   Overcast
10:38 AM 37.4 °F 27.2 °F 35.6 °F 93% 29.70 in 2.0 mi East 19.6 mph - 0.00 in   Overcast
10:45 AM 39.2 °F 30.2 °F 35.6 °F 87% 29.70 in 1.8 mi East 17.3 mph - 0.00 in Rain Light Rain
10:53 AM 39.2 °F 29.6 °F 35.6 °F 87% 29.70 in 2.5 mi East 19.6 mph - 0.00 in Rain Light Rain
10:56 AM 39.0 °F 29.9 °F 36.0 °F 89% 29.70 in 3.0 mi East 17.3 mph 24.2 mph 0.00 in   Overcast
11:56 AM 39.9 °F 30.5 °F 36.0 °F 86% 29.68 in 10.0 mi East 19.6 mph - N/A   Overcast
12:56 PM 39.9 °F 31.4 °F 37.0 °F 89% 29.67 in 2.5 mi East 16.1 mph - N/A   Overcast
1:56 PM 41.0 °F 33.5 °F 37.9 °F 89% 29.66 in 2.5 mi East 13.8 mph 21.9 mph N/A   Overcast
2:06 PM 39.2 °F 30.8 °F 37.4 °F 93% 29.65 in 3.0 mi East 15.0 mph - N/A   Overcast
2:24 PM 41.0 °F 32.8 °F 37.4 °F 87% 29.64 in 3.0 mi East 16.1 mph - N/A   Overcast
2:34 PM 41.0 °F 33.1 °F 37.4 °F 87% 29.65 in 2.5 mi East 15.0 mph - N/A   Overcast
2:46 PM 41.0 °F 32.2 °F 37.4 °F 87% 29.64 in 5.0 mi East 18.4 mph 24.2 mph N/A   Overcast
2:56 PM 42.1 °F 34.9 °F 37.9 °F 85% 29.64 in 9.0 mi East 13.8 mph - N/A   Overcast
3:04 PM 41.0 °F 32.8 °F 37.4 °F 87% 29.64 in 5.0 mi East 16.1 mph - N/A   Overcast
3:56 PM 41.0 °F 32.2 °F 37.0 °F 86% 29.62 in 9.0 mi East 18.4 mph - N/A   Overcast
4:42 PM 41.0 °F 33.1 °F 37.4 °F 87% 29.63 in 2.5 mi East 15.0 mph - 0.00 in Rain Light Rain
4:48 PM 41.0 °F 33.1 °F 37.4 °F 87% 29.63 in 2.5 mi East 15.0 mph - 0.00 in Rain Light Rain
4:52 PM 41.0 °F 32.2 °F 37.4 °F 87% 29.62 in 3.0 mi East 18.4 mph - 0.00 in Rain Light Rain
4:56 PM 41.0 °F 31.9 °F 37.9 °F 89% 29.63 in 3.0 mi East 19.6 mph - 0.00 in   Overcast
5:03 PM 41.0 °F 31.9 °F 37.4 °F 87% 29.63 in 5.0 mi East 19.6 mph 26.5 mph N/A   Overcast
5:11 PM 41.0 °F 31.9 °F 37.4 °F 87% 29.63 in 7.0 mi East 19.6 mph - N/A   Overcast
5:45 PM 41.0 °F 32.8 °F 37.4 °F 87% 29.62 in 7.0 mi East 16.1 mph - N/A   Overcast
5:56 PM 41.0 °F 31.6 °F 37.0 °F 86% 29.61 in 6.0 mi East 20.7 mph 26.5 mph N/A   Overcast
6:54 PM 39.2 °F 30.8 °F 37.4 °F 93% 29.61 in 1.8 mi East 15.0 mph - 0.00 in Rain Light Rain
6:55 PM 39.0 °F 31.0 °F 37.0 °F 93% 29.62 in 1.8 mi East 13.8 mph - 0.00 in Rain Light Rain
7:05 PM 39.2 °F 32.0 °F 37.4 °F 93% 29.61 in 1.2 mi East 11.5 mph - 0.01 in Rain Light Rain
7:22 PM 39.2 °F 30.8 °F 37.4 °F 93% 29.60 in 1.2 mi East 15.0 mph - 0.01 in Rain Light Rain
7:25 PM 39.2 °F 29.6 °F 37.4 °F 93% 29.60 in 1.2 mi East 19.6 mph - 0.01 in Rain Light Rain
7:35 PM 39.2 °F 31.6 °F 35.6 °F 87% 29.59 in 3.0 mi East 12.7 mph - 0.01 in Rain Light Rain
7:56 PM 39.0 °F 31.0 °F 36.0 °F 89% 29.59 in 6.0 mi East 13.8 mph - 0.01 in   Overcast
8:08 PM 39.2 °F 30.8 °F 35.6 °F 87% 29.59 in 10.0 mi East 15.0 mph - N/A   Overcast
8:56 PM 37.9 °F 28.9 °F 35.1 °F 89% 29.59 in 10.0 mi East 16.1 mph - N/A   Overcast
9:56 PM 37.9 °F 30.0 °F 34.0 °F 86% 29.58 in 10.0 mi East 12.7 mph - 0.00 in Rain Light Rain
10:52 PM 37.4 °F 32.8 °F 35.6 °F 93% 29.60 in 2.5 mi ENE 5.8 mph - 0.03 in Rain Light Rain
10:56 PM 37.0 °F 32.4 °F 35.1 °F 93% 29.60 in 3.0 mi ENE 5.8 mph - 0.03 in Rain Light Rain
11:16 PM 37.4 °F 32.1 °F 33.8 °F 87% 29.59 in 6.0 mi ENE 6.9 mph - 0.00 in Rain Light Rain
11:48 PM 37.4 °F 32.8 °F 33.8 °F 87% 29.59 in 6.0 mi NE 5.8 mph - 0.00 in   Overcast
11:56 PM 37.0 °F 31.6 °F 34.0 °F 89% 29.59 in 5.0 mi ENE 6.9 mph - 0.00 in   Overcast